Find Starlink 4767

NORAD ID: 53850 Int'l Des: 2022-114 Owner: SPXS Country: US Constellation: starlink operational
LEOCIRCULAR

实时位置

正在加载3D地球...

关于 Starlink 4767

正在加载描述...

即将过境

Passes for default location (London). Set your location on the main map for personalized predictions.

高度历史

Loading altitude history...

两行轨道根数

1 53850U 22114AJ 26121.52684307 .00000164 00000-0 28403-4 0 9990
2 53850 53.2190 56.5411 0001481 84.3941 275.7220 15.08840288200953
Epoch: May 1, 2026 • Age: 6 hours

当前状态

高度 558.6 km
速度 7.58 km/s
星下点 -51.34°S, 165.89°E
发射日期 Sep 19, 2022
运行时间 3.6 years
类型 internet

技术详情

分类 Payload
质量 305.00 kg
干质量 290.00 kg
总质量 305.00 kg
长度 0.20 m
直径 2.80 m
跨度 9.00 m
形状 Box + pan
制造商 SPXS
平台类型 Starlink
阶段状态 In Orbit
所有者/国家 SPXS/US

Most Searched